Weather Roundup
Issued by NWS

Home | Current Version | Previous Version | Graphics & Text | Print | Product List | Glossary Off
Versions: 1 2 3 4 5 6 7 8 9 10 11 12 13 14 15 16 17 18 19 20 21 22 23 24 25 26 27 28 29 30 31 32 33 34 35 36 37 38 39 40 41 42 43 44 45 46 47 48 49 50

363
NZUS93 KARX 180359
HRRWXR

CURRENT HOURLY OBSERVATIONS ACROSS
MUCH OF THE UPPER MISSISSIPPI VALLEY
NATIONAL WEATHER SERVICE LA CROSSE WI
1000 PM CST SUN DEC 17 2017


...SOUTHEAST MINNESOTA...


CITY           SKY/WX    TMP DP  RH WIND       PRES   REMARKS
ROCHESTER      CLOUDY    29  28  96 W8        29.95S FOG     WCI  21
ROCHESTER/MAYO CLOUDY    30  30 100 W5        29.96S WCI  25
WINONA         CLOUDY    32  28  86 CALM      29.98F
AUSTIN         NOT AVBL
ALBERT LEA     NOT AVBL
DODGE CENTER   CLOUDY    28  27  93 SW5       29.94F FOG     WCI  23
PRESTON        CLOUDY    28  27  96 SW3       29.95S FOG
OWATONNA       CLOUDY    28  27  93 CALM      29.96S FOG
FARIBAULT      CLOUDY    27  27 100 CALM      29.95F FOG
$$

...ELSEWHERE IN MINNESOTA...


CITY           SKY/WX    TMP DP  RH WIND       PRES   REMARKS
MINNEAPOLIS    CLOUDY    27  25  92 S7        29.96F FOG     WCI  19
INTNL FALLS    CLEAR     24  21  88 VRB5      29.80F FOG     WCI  18
DULUTH         CLOUDY    24  21  88 SW6       29.88F WCI  17
RED WING       CLOUDY    27  25  93 CALM      29.96F FOG
REDWOOD FALLS  CLOUDY    29  25  85 S7        29.93F WCI  22
MANKATO        CLOUDY    25  24  96 S5        29.96F FOG     WCI  19
WORTHINGTON    CLOUDY    27  26  96 SW8       29.93F FOG     WCI  19
FAIRMONT       CLOUDY    22  20  92 SW5       29.96F WCI  16
$$

...SOUTHWEST WISCONSIN...


CITY           SKY/WX    TMP DP  RH WIND       PRES   REMARKS
LA CROSSE      CLOUDY    32  28  85 SW5       29.97F WCI  27
PRAIRIE DU CHI CLOUDY    32  29  86 CALM      29.98S FOG
BOSCOBEL       CLOUDY    33  29  85 CALM      29.98S
LONE ROCK      NOT AVBL
PLATTEVILLE    CLOUDY    34  34 100 SE5       29.95F WCI  29
FORT MC COY    CLOUDY    29  29  99 CALM      29.98S FOG
MAUSTON-NEW LI CLOUDY    32  29  90 CALM      29.95F FOG
VIROQUA        CLOUDY    30  30 100 CALM      29.94S
WIS DELLS      CLOUDY    31  29  92 SE3       29.94F FOG
$$

...ELSEWHERE IN WISCONSIN...


CITY           SKY/WX    TMP DP  RH WIND       PRES   REMARKS
MILWAUKEE      CLOUDY    35  32  88 CALM      29.96F FOG
MADISON        CLOUDY    32  30  92 SE3       29.96F FOG
GREEN BAY      CLOUDY    30  27  88 W5        29.97F FOG     WCI  25
EAU CLAIRE     NOT AVBL
BLACK RVR FLS  CLOUDY    30  29  98 CALM      29.96F FOG
MEDFORD        CLOUDY    26  25  96 SW5       29.94S FOG     WCI  20
WAUSAU         FOG       27  27 100 CALM      29.94S VSB 1/4
WIS RAPIDS     FOG       29  27  92 CALM      29.96F VSB 3/4
MARSHFIELD     FOG       28  27  96 CALM      29.93F VSB 1/4
RICE LAKE      CLOUDY    28  27  99 CALM      29.97S FOG
$$

...NORTHEAST IOWA...


CITY           SKY/WX    TMP DP  RH WIND       PRES   REMARKS
WATERLOO       MOCLDY    26  24  92 NW5       29.97S FOG     WCI  20
DUBUQUE        CLOUDY    34  33  96 S7        29.95S FOG     WCI  28
DECORAH        CLOUDY    32  30  93 CALM      29.95S FOG
MASON CITY     CLOUDY    28  27  96 SW6       29.97F FOG     WCI  22
CHARLES CITY   NOT AVBL
OELWEIN        CLOUDY    32  32 100 SE3       29.97S FOG
$$

...ELSEWHERE IN IOWA...


CITY           SKY/WX    TMP DP  RH WIND       PRES   REMARKS
DES MOINES     CLOUDY    31  27  85 W6        29.99S WCI  25
IOWA CITY      CLOUDY    37  36  96 S3        29.99F FOG
FORT DODGE     CLOUDY    28  26  92 SW5       29.97F FOG     WCI  23
MARSHALLTOWN   CLOUDY    30  27  88 CALM      29.96F FOG
CEDAR RAPIDS   FOG       36  36 100 SW5       29.96S VSB 1   WCI  32
$$

...NORTHERN ILLINOIS...


CITY           SKY/WX    TMP DP  RH WIND       PRES   REMARKS
CHICAGO-OHARE  CLOUDY    41  30  65 SW6       29.98F
CHICAGO-MIDWAY CLOUDY    43  33  68 CALM      29.99S
MOLINE         CLOUDY    39  38  96 CALM      29.98S FOG
ROCKFORD       CLOUDY    36  33  89 S3        29.99F FOG
PEORIA         CLOUDY    45  39  79 S8        30.01R
$$

NOTE: "FAIR" INDICATES FEW OR NO CLOUDS BELOW 12,000 FEET WITH NO
SIGNIFICANT WEATHER AND/OR OBSTRUCTIONS TO VISIBILITY. WIND
SPEEDS ARE IN MILES-PER-HOUR.




USA.gov is the U.S. government's official web portal to all federal, state and local government web resources and services.